Weather History for Opa Locka, FL

Change the Weather History Date:

Sunday, August 18, 2013

  Actual Average Record
Temperature  
Mean Temperature 86 °F -  
Max Temperature 95 °F 90 °F 95 °F (2013)
Min Temperature 79 °F 74 °F 62 °F (1985)
Cooling Degree Days 21    
Growing Degree Days 36 (Base 50)    
Moisture  
Dew Point 75 °F    
Average Humidity 70    
Maximum Humidity 85    
Minimum Humidity 54    
Precipitation  
Precipitation 0.11 in - - ()
Sea Level Pressure  
Sea Level Pressure 30.05 in    
Wind  
Wind Speed 10 mph (ESE)    
Max Wind Speed 18 mph    
Max Gust Speed 24 mph    
Visibility 10 miles    
Events Rain    
Averages and records for this station are not official NWS values.
T = Trace of Precipitation, MM = Missing Value Source: NWS Daily Summary

Daily Weather History Graph

Daily Weather History Graph

Search for Another Location

Airport:

Trip Planner

Search our weather history database for the weather conditions in past years. The results will help you decide how hot, cold, wet, or windy it might be!

Date:

Astronomy

Aug. 18, 2013 Rise Set
Actual Time 6:55 AM EDT 7:53 PM EDT
Civil Twilight 6:31 AM EDT 8:17 PM EDT
Nautical Twilight 6:03 AM EDT 8:46 PM EDT
Astronomical Twilight 5:34 AM EDT 9:14 PM EDT
Moon 5:53 PM EDT (8/18) 4:11 AM EDT (8/18)
Length of Visible Light 13h 46m
Length of Day
12h 58m
Waxing Gibbous, 92% of the Moon is Illuminated
Aug 18
Waxing Gibbous
Aug 20
Full
Aug 28
Last Quarter
Sep 5
New
Sep 12
First Quarter

Hourly Weather History & Observations

Time (EDT) Temp. Heat Index Dew Point Humidity Pressure Visibility Wind Dir Wind Speed Gust Speed Precip Events Conditions
12:53 AM 82.0 °F 88.6 °F 75.0 °F 79% 30.08 in 10.0 mi ESE 5.8 mph - 0.00 in   Clear
1:53 AM 82.9 °F 91.8 °F 77.0 °F 82% 30.06 in 10.0 mi ENE 8.1 mph - N/A   Clear
2:53 AM 82.9 °F 90.8 °F 75.9 °F 79% 30.04 in 10.0 mi ESE 6.9 mph - N/A   Clear
3:53 AM 82.0 °F 87.9 °F 73.9 °F 76% 30.03 in 10.0 mi ESE 6.9 mph - N/A   Clear
4:53 AM 82.9 °F 89.4 °F 73.9 °F 74% 30.02 in 10.0 mi East 6.9 mph - N/A   Clear
5:53 AM 82.9 °F 90.2 °F 75.0 °F 77% 30.02 in 10.0 mi East 5.8 mph - N/A   Partly Cloudy
6:53 AM 84.0 °F 90.2 °F 73.0 °F 69% 30.03 in 10.0 mi East 6.9 mph - N/A   Scattered Clouds
7:53 AM 84.9 °F 93.3 °F 75.0 °F 72% 30.04 in 10.0 mi East 11.5 mph - N/A   Scattered Clouds
8:53 AM 87.1 °F 96.3 °F 75.0 °F 67% 30.06 in 10.0 mi ESE 13.8 mph - N/A   Scattered Clouds
9:53 AM 89.1 °F 98.0 °F 73.9 °F 61% 30.07 in 10.0 mi ESE 13.8 mph - N/A   Scattered Clouds
10:53 AM 89.1 °F 100.2 °F 75.9 °F 65% 30.08 in 10.0 mi ESE 15.0 mph - 0.01 in   Mostly Cloudy
11:53 AM 90.0 °F 100.2 °F 75.0 °F 61% 30.08 in 10.0 mi SE 18.4 mph 24.2 mph N/A   Mostly Cloudy
12:53 PM 93.0 °F 104.6 °F 75.0 °F 56% 30.07 in 10.0 mi East 17.3 mph 23.0 mph N/A   Scattered Clouds
1:53 PM 93.9 °F 105.4 °F 75.0 °F 54% 30.06 in 10.0 mi SE 16.1 mph 21.9 mph N/A   Scattered Clouds
2:53 PM 91.9 °F 103.2 °F 75.0 °F 58% 30.04 in 10.0 mi ESE 13.8 mph - N/A   Scattered Clouds
3:53 PM 87.1 °F 99.8 °F 78.1 °F 74% 30.02 in 9.0 mi ESE 12.7 mph 23.0 mph 0.01 in Rain Light Rain
4:53 PM 90.0 °F 101.3 °F 75.9 °F 63% 30.01 in 10.0 mi East 12.7 mph - 0.00 in   Mostly Cloudy
5:36 PM 89.6 °F 99.8 °F 75.2 °F 62% 30.00 in 10.0 mi ESE 17.3 mph - N/A   Mostly Cloudy
5:44 PM 89.6 °F 99.8 °F 75.2 °F 62% 30.00 in 10.0 mi ESE 13.8 mph - N/A   Mostly Cloudy
5:53 PM 89.1 °F 97.0 °F 73.0 °F 59% 30.00 in 10.0 mi ESE 15.0 mph - N/A   Scattered Clouds
6:53 PM 89.1 °F 99.1 °F 75.0 °F 63% 30.02 in 10.0 mi ESE 10.4 mph - N/A   Mostly Cloudy
7:53 PM 87.1 °F 96.3 °F 75.0 °F 67% 30.02 in 10.0 mi East 13.8 mph - N/A   Partly Cloudy
8:53 PM 86.0 °F 95.1 °F 75.0 °F 70% 30.04 in 10.0 mi ESE 10.4 mph - N/A   Scattered Clouds
9:53 PM 86.0 °F 95.1 °F 75.0 °F 70% 30.07 in 10.0 mi ESE 11.5 mph - N/A   Clear
10:33 PM 82.4 °F 89.5 °F 75.2 °F 79% 30.09 in 10.0 mi SSE 15.0 mph 23.0 mph 0.00 in Rain Light Rain
10:41 PM 80.6 °F 86.2 °F 75.2 °F 84% 30.08 in 7.0 mi SSE 10.4 mph - 0.06 in Rain Heavy Rain
10:53 PM 79.0 °F - 73.9 °F 84% 30.09 in 10.0 mi SE 6.9 mph - 0.08 in Rain Light Rain
11:53 PM 80.1 °F 85.1 °F 75.0 °F 85% 30.09 in 10.0 mi Calm Calm - 0.01 in   Clear